Location: Champignolles
(47.0543°N, 4.5663°E)
Time: 06:09:00
(UTC+00:00)

SL-24 DEB - Pass Details

Date: 30 November 2020
Orbit: 664 x 701 km, 92.0° (Epoch: 18 January)

Event Time Altitude Azimuth Distance (km) Brightness Sun altitude
Rises 18:06:17 0° 2° (N) 3,089 7.5 -21.7°
Reaches altitude 10° 18:08:34 10° 1° (N) 2,163 6.7 -22.1°
Maximum altitude 18:13:19 72° 278° (W) 730 4.5 -22.9°
Drops below altitude 10° 18:17:59 10° 194° (SSW) 2,123 7.0 -23.7°
Sets 18:20:13 0° 193° (SSW) 3,028 7.8 -24.1°
